Time,TemperatureF,DewpointF,PressureIn,WindDirection,WindDirectionDegrees,WindSpeedMPH,WindSpeedGustMPH,Humidity,HourlyPrecipIn,Conditions,Clouds,dailyrainin,SoftwareType,DateUTC
2013-08-11 00:02:00,81.0,75.7,30.14,NE,45,2.0,2.0,84,0.00,,,0.00,meteohub,2013-08-11 04:02:00,
2013-08-11 00:03:00,81.0,75.7,30.14,NW,315,1.0,2.0,84,0.00,,,0.00,meteohub,2013-08-11 04:03:00,
2013-08-11 00:04:00,81.0,75.7,30.14,SE,135,2.0,2.0,84,0.00,,,0.00,meteohub,2013-08-11 04:04:00,
2013-08-11 00:06:00,81.0,75.7,30.14,SE,135,0.0,4.0,84,0.00,,,0.00,meteohub,2013-08-11 04:06:00,
2013-08-11 00:11:00,80.8,75.6,30.14,East,90,0.0,4.0,84,0.00,,,0.00,meteohub,2013-08-11 04:11:00,
2013-08-11 00:16:00,80.8,75.6,30.14,East,90,0.0,4.0,84,0.00,,,0.00,meteohub,2013-08-11 04:16:00,
2013-08-11 00:21:00,80.6,75.4,30.14,East,90,0.0,2.0,84,0.00,,,0.00,meteohub,2013-08-11 04:21:00,
2013-08-11 00:26:00,80.4,75.6,30.14,East,90,0.0,1.0,85,0.00,,,0.00,meteohub,2013-08-11 04:26:00,
2013-08-11 00:31:00,80.2,75.4,30.14,East,90,0.0,1.0,85,0.00,,,0.00,meteohub,2013-08-11 04:31:00,
2013-08-11 00:36:00,80.1,75.6,30.14,NE,45,0.0,0.0,86,0.00,,,0.00,meteohub,2013-08-11 04:36:00,
2013-08-11 00:41:00,80.1,75.6,30.14,East,90,0.0,0.0,86,0.00,,,0.00,meteohub,2013-08-11 04:41:00,
2013-08-11 00:46:00,80.1,75.6,30.14,East,90,0.0,1.0,86,0.00,,,0.00,meteohub,2013-08-11 04:46:00,
2013-08-11 00:51:00,79.9,75.4,30.14,South,180,0.0,1.0,86,0.00,,,0.00,meteohub,2013-08-11 04:51:00,
2013-08-11 00:56:00,79.9,75.7,30.14,SE,135,0.0,1.0,87,0.00,,,0.00,meteohub,2013-08-11 04:56:00,
2013-08-11 01:01:00,79.9,75.7,30.14,South,180,0.0,0.0,87,0.00,,,0.00,meteohub,2013-08-11 05:01:00,
2013-08-11 01:06:00,79.7,75.6,30.14,SE,135,0.0,0.0,87,0.00,,,0.00,meteohub,2013-08-11 05:06:00,
2013-08-11 01:12:00,79.7,75.6,30.15,South,180,1.0,0.0,87,0.00,,,0.00,meteohub,2013-08-11 05:12:00,
2013-08-11 01:17:00,79.7,75.6,30.14,East,90,2.0,2.0,87,0.00,,,0.00,meteohub,2013-08-11 05:17:00,
2013-08-11 01:22:00,79.7,75.6,30.15,East,90,2.0,2.0,87,0.00,,,0.00,meteohub,2013-08-11 05:22:00,
2013-08-11 01:27:00,79.5,75.4,30.14,SW,225,1.0,2.0,87,0.00,,,0.00,meteohub,2013-08-11 05:27:00,
2013-08-11 01:32:00,79.3,75.6,30.15,East,90,1.0,2.0,88,0.00,,,0.00,meteohub,2013-08-11 05:32:00,
2013-08-11 01:37:00,79.3,75.6,30.15,East,90,0.0,2.0,88,0.00,,,0.00,meteohub,2013-08-11 05:37:00,
2013-08-11 01:42:00,79.2,75.4,30.14,SE,135,0.0,2.0,88,0.00,,,0.00,meteohub,2013-08-11 05:42:00,
2013-08-11 01:47:00,79.2,75.4,30.14,South,180,0.0,1.0,88,0.00,,,0.00,meteohub,2013-08-11 05:47:00,
2013-08-11 01:53:00,79.2,75.4,30.14,East,90,0.0,1.0,88,0.00,,,0.00,meteohub,2013-08-11 05:53:00,
2013-08-11 01:58:00,79.0,75.4,30.14,South,180,0.0,2.0,89,0.00,,,0.00,meteohub,2013-08-11 05:58:00,
2013-08-11 02:04:00,79.0,75.4,30.14,South,180,0.0,2.0,89,0.00,,,0.00,meteohub,2013-08-11 06:04:00,
2013-08-11 02:09:00,78.8,75.2,30.14,South,180,0.0,2.0,89,0.00,,,0.00,meteohub,2013-08-11 06:09:00,
2013-08-11 02:14:00,78.8,75.2,30.13,South,180,0.0,1.0,89,0.00,,,0.00,meteohub,2013-08-11 06:14:00,
2013-08-11 02:19:00,78.8,75.6,30.14,South,180,0.0,1.0,90,0.00,,,0.00,meteohub,2013-08-11 06:19:00,
2013-08-11 02:25:00,78.6,75.7,30.14,South,180,0.0,0.0,91,0.00,,,0.00,meteohub,2013-08-11 06:25:00,
2013-08-11 02:31:00,78.4,75.6,30.13,South,180,0.0,0.0,91,0.00,,,0.00,meteohub,2013-08-11 06:31:00,
2013-08-11 02:37:00,78.3,75.4,30.13,South,180,0.0,0.0,91,0.00,,,0.00,meteohub,2013-08-11 06:37:00,
2013-08-11 02:42:00,78.3,75.4,30.14,South,180,0.0,0.0,91,0.00,,,0.00,meteohub,2013-08-11 06:42:00,
2013-08-11 02:47:00,78.1,75.6,30.13,South,180,0.0,0.0,92,0.00,,,0.00,meteohub,2013-08-11 06:47:00,
2013-08-11 02:52:00,78.1,75.6,30.14,South,180,0.0,0.0,92,0.00,,,0.00,meteohub,2013-08-11 06:52:00,
2013-08-11 02:57:00,78.1,75.6,30.13,South,180,0.0,0.0,92,0.00,,,0.00,meteohub,2013-08-11 06:57:00,
2013-08-11 03:03:00,78.1,75.6,30.13,South,180,0.0,0.0,92,0.00,,,0.00,meteohub,2013-08-11 07:03:00,
2013-08-11 03:08:00,78.1,75.6,30.13,East,90,2.0,0.0,92,0.00,,,0.00,meteohub,2013-08-11 07:08:00,
2013-08-11 03:14:00,77.7,75.6,30.13,SE,135,0.0,2.0,93,0.00,,,0.00,meteohub,2013-08-11 07:14:00,
2013-08-11 03:19:00,77.7,75.6,30.13,SE,135,0.0,2.0,93,0.00,,,0.00,meteohub,2013-08-11 07:19:00,
2013-08-11 03:24:00,77.7,75.6,30.13,SE,135,0.0,2.0,93,0.00,,,0.00,meteohub,2013-08-11 07:24:00,
2013-08-11 03:30:00,77.7,75.6,30.13,SE,135,0.0,1.0,93,0.00,,,0.00,meteohub,2013-08-11 07:30:00,
2013-08-11 03:35:00,77.7,75.6,30.13,SE,135,0.0,0.0,93,0.00,,,0.00,meteohub,2013-08-11 07:35:00,
2013-08-11 03:40:00,77.5,75.4,30.13,SE,135,0.0,0.0,93,0.00,,,0.00,meteohub,2013-08-11 07:40:00,
2013-08-11 03:46:00,77.4,75.2,30.13,West,270,0.0,1.0,93,0.00,,,0.00,meteohub,2013-08-11 07:46:00,
2013-08-11 03:51:00,77.2,75.0,30.12,West,270,0.0,1.0,93,0.00,,,0.00,meteohub,2013-08-11 07:51:00,
2013-08-11 03:56:00,77.2,75.0,30.12,West,270,0.0,1.0,93,0.00,,,0.00,meteohub,2013-08-11 07:56:00,
2013-08-11 04:02:00,77.0,74.8,30.13,West,270,0.0,0.0,93,0.00,,,0.00,meteohub,2013-08-11 08:02:00,
2013-08-11 04:07:00,77.0,74.8,30.13,West,270,0.0,0.0,93,0.00,,,0.00,meteohub,2013-08-11 08:07:00,
2013-08-11 04:12:00,76.8,75.0,30.12,West,270,0.0,0.0,94,0.00,,,0.00,meteohub,2013-08-11 08:12:00,
2013-08-11 04:17:00,76.6,74.8,30.12,West,270,0.0,0.0,94,0.00,,,0.00,meteohub,2013-08-11 08:17:00,
2013-08-11 04:22:00,76.5,74.8,30.12,West,270,0.0,0.0,95,0.00,,,0.00,meteohub,2013-08-11 08:22:00,
2013-08-11 04:27:00,76.5,74.8,30.13,West,270,0.0,0.0,95,0.00,,,0.00,meteohub,2013-08-11 08:27:00,
2013-08-11 04:33:00,76.3,74.7,30.12,West,270,0.0,0.0,95,0.00,,,0.00,meteohub,2013-08-11 08:33:00,
2013-08-11 04:38:00,76.3,74.7,30.12,West,270,0.0,0.0,95,0.00,,,0.00,meteohub,2013-08-11 08:38:00,
2013-08-11 04:43:00,76.1,74.5,30.13,West,270,0.0,0.0,95,0.00,,,0.00,meteohub,2013-08-11 08:43:00,
2013-08-11 04:49:00,76.1,74.5,30.13,West,270,0.0,0.0,95,0.00,,,0.00,meteohub,2013-08-11 08:49:00,
2013-08-11 04:54:00,75.9,74.3,30.12,West,270,0.0,0.0,95,0.00,,,0.00,meteohub,2013-08-11 08:54:00,
2013-08-11 04:59:00,75.9,74.3,30.13,West,270,0.0,0.0,95,0.00,,,0.00,meteohub,2013-08-11 08:59:00,
2013-08-11 05:05:00,75.9,74.3,30.13,West,270,0.0,0.0,95,0.00,,,0.00,meteohub,2013-08-11 09:05:00,
2013-08-11 05:11:00,75.9,74.3,30.13,West,270,0.0,0.0,95,0.00,,,0.00,meteohub,2013-08-11 09:11:00,
2013-08-11 05:17:00,76.1,74.5,30.13,West,270,0.0,0.0,95,0.00,,,0.00,meteohub,2013-08-11 09:17:00,
2013-08-11 05:22:00,76.1,74.8,30.13,West,270,0.0,0.0,96,0.00,,,0.00,meteohub,2013-08-11 09:22:00,
2013-08-11 05:27:00,75.9,74.7,30.13,West,270,0.0,0.0,96,0.00,,,0.00,meteohub,2013-08-11 09:27:00,
2013-08-11 05:32:00,75.9,74.7,30.13,West,270,0.0,0.0,96,0.00,,,0.00,meteohub,2013-08-11 09:32:00,
2013-08-11 05:37:00,76.1,74.8,30.13,West,270,0.0,0.0,96,0.00,,,0.00,meteohub,2013-08-11 09:37:00,
2013-08-11 05:42:00,75.9,74.7,30.13,West,270,0.0,0.0,96,0.00,,,0.00,meteohub,2013-08-11 09:42:00,
2013-08-11 05:47:00,75.9,74.7,30.13,West,270,0.0,0.0,96,0.00,,,0.00,meteohub,2013-08-11 09:47:00,
2013-08-11 05:53:00,75.9,74.7,30.14,West,270,0.0,0.0,96,0.00,,,0.00,meteohub,2013-08-11 09:53:00,
2013-08-11 05:59:00,75.7,74.5,30.14,West,270,0.0,0.0,96,0.00,,,0.00,meteohub,2013-08-11 09:59:00,
2013-08-11 06:04:00,75.9,74.7,30.13,West,270,0.0,0.0,96,0.00,,,0.00,meteohub,2013-08-11 10:04:00,
2013-08-11 06:09:00,75.7,74.5,30.13,West,270,0.0,0.0,96,0.00,,,0.00,meteohub,2013-08-11 10:09:00,
2013-08-11 06:14:00,75.7,74.5,30.14,West,270,0.0,0.0,96,0.00,,,0.00,meteohub,2013-08-11 10:14:00,
2013-08-11 06:20:00,75.6,74.3,30.14,West,270,0.0,0.0,96,0.00,,,0.00,meteohub,2013-08-11 10:20:00,
2013-08-11 06:25:00,75.6,74.3,30.14,West,270,0.0,0.0,96,0.00,,,0.00,meteohub,2013-08-11 10:25:00,
2013-08-11 06:31:00,75.6,74.3,30.14,West,270,0.0,0.0,96,0.00,,,0.00,meteohub,2013-08-11 10:31:00,
2013-08-11 06:36:00,75.4,74.1,30.14,West,270,0.0,0.0,96,0.00,,,0.00,meteohub,2013-08-11 10:36:00,
2013-08-11 06:41:00,75.4,74.1,30.14,West,270,0.0,0.0,96,0.00,,,0.00,meteohub,2013-08-11 10:41:00,
2013-08-11 06:47:00,75.4,74.1,30.14,West,270,0.0,0.0,96,0.00,,,0.00,meteohub,2013-08-11 10:47:00,
2013-08-11 06:52:00,75.2,73.9,30.14,West,270,0.0,0.0,96,0.00,,,0.00,meteohub,2013-08-11 10:52:00,
2013-08-11 06:57:00,75.0,74.1,30.14,West,270,0.0,0.0,97,0.00,,,0.00,meteohub,2013-08-11 10:57:00,
2013-08-11 07:02:00,74.8,73.9,30.14,West,270,0.0,0.0,97,0.00,,,0.00,meteohub,2013-08-11 11:02:00,
2013-08-11 07:08:00,74.8,73.9,30.14,West,270,0.0,0.0,97,0.00,,,0.00,meteohub,2013-08-11 11:08:00,
2013-08-11 07:13:00,74.8,73.9,30.14,West,270,0.0,0.0,97,0.00,,,0.00,meteohub,2013-08-11 11:13:00,
2013-08-11 07:19:00,74.8,73.9,30.15,West,270,0.0,0.0,97,0.00,,,0.00,meteohub,2013-08-11 11:19:00,
2013-08-11 07:24:00,75.0,74.5,30.15,West,270,0.0,0.0,98,0.00,,,0.00,meteohub,2013-08-11 11:24:00,
2013-08-11 07:29:00,75.2,74.3,30.15,West,270,0.0,0.0,97,0.00,,,0.00,meteohub,2013-08-11 11:29:00,
2013-08-11 07:34:00,75.2,74.3,30.14,West,270,0.0,0.0,97,0.00,,,0.00,meteohub,2013-08-11 11:34:00,
2013-08-11 07:39:00,75.4,74.5,30.15,West,270,0.0,0.0,97,0.00,,,0.00,meteohub,2013-08-11 11:39:00,
2013-08-11 07:45:00,75.6,74.7,30.15,West,270,0.0,0.0,97,0.00,,,0.00,meteohub,2013-08-11 11:45:00,
2013-08-11 07:50:00,75.7,74.8,30.15,West,270,0.0,0.0,97,0.00,,,0.00,meteohub,2013-08-11 11:50:00,
2013-08-11 07:56:00,75.9,75.0,30.15,West,270,0.0,0.0,97,0.00,,,0.00,meteohub,2013-08-11 11:56:00,
2013-08-11 08:01:00,76.3,75.4,30.15,West,270,0.0,0.0,97,0.00,,,0.00,meteohub,2013-08-11 12:01:00,
2013-08-11 08:06:00,76.8,75.9,30.15,East,90,1.0,0.0,97,0.00,,,0.00,meteohub,2013-08-11 12:06:00,
2013-08-11 08:11:00,77.2,75.9,30.15,East,90,2.0,2.0,96,0.00,,,0.00,meteohub,2013-08-11 12:11:00,
2013-08-11 08:16:00,77.5,76.6,30.15,South,180,2.0,2.0,97,0.00,,,0.00,meteohub,2013-08-11 12:16:00,
2013-08-11 08:22:00,77.9,77.0,30.15,SE,135,1.0,2.0,97,0.00,,,0.00,meteohub,2013-08-11 12:22:00,
2013-08-11 08:27:00,78.3,77.4,30.16,South,180,2.0,2.0,97,0.00,,,0.00,meteohub,2013-08-11 12:27:00,
2013-08-11 08:32:00,78.6,77.7,30.16,SW,225,0.0,2.0,97,0.00,,,0.00,meteohub,2013-08-11 12:32:00,
2013-08-11 08:37:00,79.2,77.9,30.16,South,180,1.0,3.0,96,0.00,,,0.00,meteohub,2013-08-11 12:37:00,
2013-08-11 08:43:00,79.7,78.4,30.16,South,180,1.0,6.0,96,0.00,,,0.00,meteohub,2013-08-11 12:43:00,
2013-08-11 08:48:00,80.2,79.0,30.16,SE,135,2.0,6.0,96,0.00,,,0.00,meteohub,2013-08-11 12:48:00,
2013-08-11 08:54:00,80.6,78.6,30.16,SW,225,2.0,4.0,94,0.00,,,0.00,meteohub,2013-08-11 12:54:00,
2013-08-11 08:59:00,81.0,79.0,30.16,SE,135,0.0,4.0,94,0.00,,,0.00,meteohub,2013-08-11 12:59:00,
2013-08-11 09:05:00,81.1,78.6,30.16,East,90,2.0,3.0,92,0.00,,,0.00,meteohub,2013-08-11 13:05:00,
2013-08-11 09:10:00,81.5,78.6,30.16,North,0,4.0,5.0,91,0.00,,,0.00,meteohub,2013-08-11 13:10:00,
2013-08-11 09:16:00,81.9,78.3,30.17,SE,135,2.0,5.0,89,0.00,,,0.00,meteohub,2013-08-11 13:16:00,
2013-08-11 09:21:00,82.2,78.3,30.17,NE,45,2.0,4.0,88,0.00,,,0.00,meteohub,2013-08-11 13:21:00,
2013-08-11 09:27:00,82.9,79.0,30.16,SE,135,2.0,4.0,88,0.00,,,0.00,meteohub,2013-08-11 13:27:00,
2013-08-11 09:32:00,83.8,79.2,30.16,South,180,2.0,5.0,86,0.00,,,0.00,meteohub,2013-08-11 13:32:00,
2013-08-11 09:37:00,84.4,79.0,30.16,East,90,2.0,5.0,84,0.00,,,0.00,meteohub,2013-08-11 13:37:00,
2013-08-11 09:42:00,84.9,79.2,30.16,SE,135,3.0,5.0,83,0.00,,,0.00,meteohub,2013-08-11 13:42:00,
2013-08-11 09:48:00,85.3,78.4,30.16,SE,135,3.0,4.0,80,0.00,,,0.00,meteohub,2013-08-11 13:48:00,
2013-08-11 09:53:00,85.6,78.4,30.17,SW,225,3.0,5.0,79,0.00,,,0.00,meteohub,2013-08-11 13:53:00,
2013-08-11 09:58:00,86.0,77.5,30.17,East,90,2.0,5.0,76,0.00,,,0.00,meteohub,2013-08-11 13:58:00,
2013-08-11 10:03:00,86.4,77.0,30.17,West,270,4.0,5.0,74,0.00,,,0.00,meteohub,2013-08-11 14:03:00,
2013-08-11 10:10:00,86.9,76.3,30.17,SE,135,3.0,5.0,71,0.00,,,0.00,meteohub,2013-08-11 14:10:00,
2013-08-11 10:15:00,87.4,77.7,30.17,SE,135,2.0,5.0,73,0.00,,,0.00,meteohub,2013-08-11 14:15:00,
2013-08-11 10:20:00,87.8,77.2,30.17,West,270,2.0,5.0,71,0.00,,,0.00,meteohub,2013-08-11 14:20:00,
2013-08-11 10:26:00,88.5,77.0,30.17,SW,225,4.0,4.0,69,0.00,,,0.00,meteohub,2013-08-11 14:26:00,
2013-08-11 10:31:00,88.9,77.0,30.17,East,90,3.0,4.0,68,0.00,,,0.00,meteohub,2013-08-11 14:31:00,
2013-08-11 10:37:00,89.2,76.8,30.17,SE,135,2.0,4.0,67,0.00,,,0.00,meteohub,2013-08-11 14:37:00,
2013-08-11 10:42:00,89.6,75.7,30.17,NE,45,4.0,6.0,64,0.00,,,0.00,meteohub,2013-08-11 14:42:00,
2013-08-11 10:47:00,89.6,75.7,30.17,East,90,2.0,6.0,64,0.00,,,0.00,meteohub,2013-08-11 14:47:00,
2013-08-11 10:53:00,89.8,76.5,30.17,East,90,2.0,5.0,65,0.00,,,0.00,meteohub,2013-08-11 14:53:00,
2013-08-11 10:59:00,90.0,75.7,30.17,East,90,2.0,5.0,63,0.00,,,0.00,meteohub,2013-08-11 14:59:00,
2013-08-11 11:04:00,90.5,76.1,30.17,East,90,2.0,2.0,63,0.00,,,0.00,meteohub,2013-08-11 15:04:00,
2013-08-11 11:10:00,90.3,75.6,30.17,East,90,3.0,4.0,62,0.00,,,0.00,meteohub,2013-08-11 15:10:00,
2013-08-11 11:15:00,90.3,75.0,30.17,SW,225,3.0,4.0,61,0.00,,,0.00,meteohub,2013-08-11 15:15:00,
2013-08-11 11:21:00,90.3,75.9,30.17,SE,135,2.0,4.0,63,0.00,,,0.00,meteohub,2013-08-11 15:21:00,
2013-08-11 11:26:00,90.0,75.2,30.17,South,180,4.0,6.0,62,0.00,,,0.00,meteohub,2013-08-11 15:26:00,
2013-08-11 11:31:00,90.1,75.4,30.16,SW,225,3.0,6.0,62,0.00,,,0.00,meteohub,2013-08-11 15:31:00,
2013-08-11 11:37:00,90.7,75.9,30.17,NE,45,2.0,6.0,62,0.00,,,0.00,meteohub,2013-08-11 15:37:00,
2013-08-11 11:42:00,91.0,75.7,30.16,SE,135,2.0,6.0,61,0.00,,,0.00,meteohub,2013-08-11 15:42:00,
2013-08-11 11:47:00,91.2,74.8,30.16,North,0,1.0,3.0,59,0.00,,,0.00,meteohub,2013-08-11 15:47:00,
2013-08-11 11:52:00,91.4,74.5,30.16,South,180,2.0,4.0,58,0.00,,,0.00,meteohub,2013-08-11 15:52:00,
2013-08-11 11:58:00,91.8,74.8,30.16,East,90,1.0,5.0,58,0.00,,,0.00,meteohub,2013-08-11 15:58:00,
2013-08-11 12:03:00,92.3,74.8,30.16,South,180,3.0,5.0,57,0.00,,,0.00,meteohub,2013-08-11 16:03:00,
2013-08-11 12:09:00,92.1,74.7,30.16,SW,225,4.0,5.0,57,0.00,,,0.00,meteohub,2013-08-11 16:09:00,
2013-08-11 12:15:00,92.1,75.2,30.16,East,90,2.0,4.0,58,0.00,,,0.00,meteohub,2013-08-11 16:15:00,
2013-08-11 12:20:00,92.5,74.5,30.15,South,180,3.0,4.0,56,0.00,,,0.00,meteohub,2013-08-11 16:20:00,
2013-08-11 12:25:00,92.3,74.3,30.15,SE,135,4.0,5.0,56,0.00,,,0.00,meteohub,2013-08-11 16:25:00,
2013-08-11 12:31:00,92.5,74.5,30.15,NNW,338,3.0,5.0,56,0.00,,,0.00,meteohub,2013-08-11 16:31:00,
2013-08-11 12:36:00,92.5,73.9,30.15,East,90,2.0,5.0,55,0.00,,,0.00,meteohub,2013-08-11 16:36:00,
2013-08-11 12:42:00,92.3,73.8,30.15,SE,135,2.0,4.0,55,0.00,,,0.00,meteohub,2013-08-11 16:42:00,
2013-08-11 12:47:00,92.7,74.7,30.15,SE,135,2.0,3.0,56,0.00,,,0.00,meteohub,2013-08-11 16:47:00,
2013-08-11 12:52:00,92.8,74.3,30.15,SW,225,4.0,4.0,55,0.00,,,0.00,meteohub,2013-08-11 16:52:00,
2013-08-11 12:57:00,93.4,74.3,30.15,SE,135,3.0,4.0,54,0.00,,,0.00,meteohub,2013-08-11 16:57:00,
2013-08-11 13:02:00,93.7,73.9,30.15,ENE,68,2.0,6.0,53,0.00,,,0.00,meteohub,2013-08-11 17:02:00,
2013-08-11 13:07:00,93.9,73.6,30.15,ESE,113,2.0,6.0,52,0.00,,,0.00,meteohub,2013-08-11 17:07:00,
2013-08-11 13:12:00,94.1,73.2,30.15,NW,315,2.0,6.0,51,0.00,,,0.00,meteohub,2013-08-11 17:12:00,
2013-08-11 13:17:00,95.0,73.9,30.14,East,90,1.0,4.0,51,0.00,,,0.00,meteohub,2013-08-11 17:17:00,
2013-08-11 13:22:00,95.5,73.4,30.15,South,180,2.0,4.0,49,0.00,,,0.00,meteohub,2013-08-11 17:22:00,
2013-08-11 13:27:00,95.4,72.5,30.14,South,180,4.0,4.0,48,0.00,,,0.00,meteohub,2013-08-11 17:27:00,
2013-08-11 13:32:00,94.6,72.0,30.14,SE,135,2.0,4.0,48,0.00,,,0.00,meteohub,2013-08-11 17:32:00,
2013-08-11 13:37:00,94.6,72.5,30.14,SE,135,2.0,4.0,49,0.00,,,0.00,meteohub,2013-08-11 17:37:00,
2013-08-11 13:43:00,94.8,72.1,30.14,SE,135,3.0,4.0,48,0.00,,,0.00,meteohub,2013-08-11 17:43:00,
2013-08-11 13:48:00,95.2,71.8,30.14,West,270,2.0,4.0,47,0.00,,,0.00,meteohub,2013-08-11 17:48:00,
2013-08-11 13:53:00,95.2,71.8,30.14,East,90,3.0,4.0,47,0.00,,,0.00,meteohub,2013-08-11 17:53:00,
2013-08-11 13:59:00,95.2,72.3,30.14,NE,45,2.0,4.0,48,0.00,,,0.00,meteohub,2013-08-11 17:59:00,
2013-08-11 14:04:00,95.7,71.6,30.13,North,0,3.0,4.0,46,0.00,,,0.00,meteohub,2013-08-11 18:04:00,
2013-08-11 14:09:00,96.1,72.0,30.13,SW,225,1.0,4.0,46,0.00,,,0.00,meteohub,2013-08-11 18:09:00,
2013-08-11 14:14:00,95.7,72.3,30.13,SE,135,2.0,4.0,47,0.00,,,0.00,meteohub,2013-08-11 18:14:00,
2013-08-11 14:19:00,96.1,73.2,30.12,NE,45,2.0,4.0,48,0.00,,,0.00,meteohub,2013-08-11 18:19:00,
2013-08-11 14:25:00,97.0,73.4,30.12,NE,45,3.0,3.0,47,0.00,,,0.00,meteohub,2013-08-11 18:25:00,
2013-08-11 14:30:00,96.8,72.7,30.12,SW,225,2.0,4.0,46,0.00,,,0.00,meteohub,2013-08-11 18:30:00,
2013-08-11 14:36:00,96.8,72.7,30.12,East,90,2.0,4.0,46,0.00,,,0.00,meteohub,2013-08-11 18:36:00,
2013-08-11 14:41:00,96.6,72.5,30.12,NE,45,2.0,4.0,46,0.00,,,0.00,meteohub,2013-08-11 18:41:00,
2013-08-11 14:46:00,96.6,72.5,30.12,SE,135,2.0,4.0,46,0.00,,,0.00,meteohub,2013-08-11 18:46:00,
2013-08-11 14:52:00,97.3,72.5,30.12,South,180,4.0,4.0,45,0.00,,,0.00,meteohub,2013-08-11 18:52:00,
2013-08-11 14:57:00,97.0,71.4,30.12,SE,135,1.0,4.0,44,0.00,,,0.00,meteohub,2013-08-11 18:57:00,
2013-08-11 15:02:00,97.2,71.6,30.12,East,90,2.0,4.0,44,0.00,,,0.00,meteohub,2013-08-11 19:02:00,
2013-08-11 15:07:00,97.0,72.1,30.12,SW,225,2.0,4.0,45,0.00,,,0.00,meteohub,2013-08-11 19:07:00,
2013-08-11 15:12:00,96.4,72.3,30.11,NW,315,1.0,4.0,46,0.00,,,0.00,meteohub,2013-08-11 19:12:00,
2013-08-11 15:17:00,96.3,72.1,30.12,East,90,3.0,4.0,46,0.00,,,0.00,meteohub,2013-08-11 19:17:00,
2013-08-11 15:23:00,96.8,72.0,30.11,East,90,2.0,4.0,45,0.00,,,0.00,meteohub,2013-08-11 19:23:00,
2013-08-11 15:28:00,97.0,72.1,30.10,West,270,3.0,4.0,45,0.00,,,0.00,meteohub,2013-08-11 19:28:00,
2013-08-11 15:34:00,95.4,70.7,30.10,West,270,2.0,4.0,45,0.00,,,0.00,meteohub,2013-08-11 19:34:00,
2013-08-11 15:39:00,95.0,71.6,30.10,SE,135,2.0,4.0,47,0.00,,,0.00,meteohub,2013-08-11 19:39:00,
2013-08-11 15:45:00,94.6,71.2,30.10,NE,45,3.0,4.0,47,0.00,,,0.00,meteohub,2013-08-11 19:45:00,
2013-08-11 15:50:00,95.7,72.3,30.09,ENE,68,2.0,4.0,47,0.00,,,0.00,meteohub,2013-08-11 19:50:00,
2013-08-11 15:55:00,95.7,70.9,30.09,SW,225,2.0,4.0,45,0.00,,,0.00,meteohub,2013-08-11 19:55:00,
2013-08-11 16:00:00,95.5,71.4,30.09,East,90,2.0,4.0,46,0.00,,,0.00,meteohub,2013-08-11 20:00:00,
2013-08-11 16:06:00,94.6,72.0,30.09,SE,135,2.0,3.0,48,0.00,,,0.00,meteohub,2013-08-11 20:06:00,
2013-08-11 16:12:00,93.7,72.3,30.09,East,90,1.0,4.0,50,0.00,,,0.00,meteohub,2013-08-11 20:12:00,
2013-08-11 16:17:00,93.6,72.1,30.09,NNW,338,0.0,4.0,50,0.00,,,0.00,meteohub,2013-08-11 20:17:00,
2013-08-11 16:22:00,93.7,71.6,30.09,North,0,1.0,4.0,49,0.00,,,0.00,meteohub,2013-08-11 20:22:00,
2013-08-11 16:27:00,94.1,72.0,30.09,North,0,2.0,2.0,49,0.00,,,0.00,meteohub,2013-08-11 20:27:00,
2013-08-11 16:33:00,95.0,72.1,30.08,North,0,2.0,2.0,48,0.00,,,0.00,meteohub,2013-08-11 20:33:00,
2013-08-11 16:38:00,95.0,72.1,30.08,East,90,2.0,3.0,48,0.00,,,0.00,meteohub,2013-08-11 20:38:00,
2013-08-11 16:44:00,94.5,73.6,30.08,NW,315,0.0,3.0,51,0.00,,,0.00,meteohub,2013-08-11 20:44:00,
2013-08-11 16:49:00,94.3,72.9,30.08,SW,225,3.0,3.0,50,0.00,,,0.00,meteohub,2013-08-11 20:49:00,
2013-08-11 16:54:00,94.1,72.7,30.08,East,90,2.0,3.0,50,0.00,,,0.00,meteohub,2013-08-11 20:54:00,
2013-08-11 17:00:00,94.1,72.7,30.07,North,0,2.0,3.0,50,0.00,,,0.00,meteohub,2013-08-11 21:00:00,
2013-08-11 17:05:00,94.5,72.9,30.07,South,180,2.0,3.0,50,0.00,,,0.00,meteohub,2013-08-11 21:05:00,
2013-08-11 17:10:00,95.0,72.9,30.07,North,0,2.0,3.0,49,0.00,,,0.00,meteohub,2013-08-11 21:10:00,
2013-08-11 17:16:00,95.4,72.5,30.07,NE,45,2.0,3.0,48,0.00,,,0.00,meteohub,2013-08-11 21:16:00,
2013-08-11 17:22:00,95.4,72.0,30.07,NE,45,2.0,3.0,47,0.00,,,0.00,meteohub,2013-08-11 21:22:00,
2013-08-11 17:27:00,95.0,72.1,30.07,East,90,2.0,4.0,48,0.00,,,0.00,meteohub,2013-08-11 21:27:00,
2013-08-11 17:32:00,94.3,72.1,30.07,NNE,23,2.0,4.0,49,0.00,,,0.00,meteohub,2013-08-11 21:32:00,
2013-08-11 17:37:00,94.1,72.0,30.07,NNW,338,2.0,3.0,49,0.00,,,0.00,meteohub,2013-08-11 21:37:00,
2013-08-11 17:42:00,94.1,72.0,30.07,North,0,3.0,3.0,49,0.00,,,0.00,meteohub,2013-08-11 21:42:00,
2013-08-11 17:47:00,94.1,72.0,30.07,North,0,1.0,3.0,49,0.00,,,0.00,meteohub,2013-08-11 21:47:00,
2013-08-11 17:52:00,94.5,72.9,30.07,SE,135,3.0,3.0,50,0.00,,,0.00,meteohub,2013-08-11 21:52:00,
2013-08-11 17:57:00,94.8,75.0,30.07,NE,45,1.0,4.0,53,0.00,,,0.00,meteohub,2013-08-11 21:57:00,
2013-08-11 18:03:00,94.8,75.0,30.07,SE,135,3.0,4.0,53,0.00,,,0.00,meteohub,2013-08-11 22:03:00,
2013-08-11 18:08:00,93.9,74.7,30.07,East,90,2.0,7.0,54,0.00,,,0.00,meteohub,2013-08-11 22:08:00,
2013-08-11 18:14:00,93.0,74.5,30.07,SE,135,3.0,7.0,55,0.00,,,0.00,meteohub,2013-08-11 22:14:00,
2013-08-11 18:19:00,92.3,74.3,30.07,NE,45,3.0,4.0,56,0.00,,,0.00,meteohub,2013-08-11 22:19:00,
2013-08-11 18:24:00,92.1,74.7,30.07,SSE,158,8.0,8.0,57,0.00,,,0.00,meteohub,2013-08-11 22:24:00,
2013-08-11 18:30:00,91.8,74.3,30.07,SE,135,2.0,8.0,57,0.00,,,0.00,meteohub,2013-08-11 22:30:00,
2013-08-11 18:35:00,91.8,74.3,30.07,NE,45,2.0,8.0,57,0.00,,,0.00,meteohub,2013-08-11 22:35:00,
2013-08-11 18:40:00,91.8,74.3,30.08,South,180,3.0,4.0,57,0.00,,,0.00,meteohub,2013-08-11 22:40:00,
2013-08-11 18:46:00,91.6,74.7,30.07,East,90,2.0,6.0,58,0.00,,,0.00,meteohub,2013-08-11 22:46:00,
2013-08-11 18:51:00,91.0,74.1,30.08,NE,45,2.0,6.0,58,0.00,,,0.00,meteohub,2013-08-11 22:51:00,
2013-08-11 18:56:00,90.9,74.5,30.08,NE,45,3.0,4.0,59,0.00,,,0.00,meteohub,2013-08-11 22:56:00,
2013-08-11 19:01:00,90.5,74.1,30.09,South,180,2.0,4.0,59,0.00,,,0.00,meteohub,2013-08-11 23:01:00,
2013-08-11 19:07:00,90.1,73.9,30.08,SE,135,2.0,4.0,59,0.00,,,0.00,meteohub,2013-08-11 23:07:00,
2013-08-11 19:12:00,89.8,73.6,30.08,West,270,2.0,4.0,59,0.00,,,0.00,meteohub,2013-08-11 23:12:00,
2013-08-11 19:18:00,89.2,73.6,30.08,SE,135,3.0,4.0,60,0.00,,,0.00,meteohub,2013-08-11 23:18:00,
2013-08-11 19:23:00,88.9,73.8,30.09,East,90,1.0,4.0,61,0.00,,,0.00,meteohub,2013-08-11 23:23:00,
2013-08-11 19:28:00,88.5,73.4,30.09,East,90,2.0,4.0,61,0.00,,,0.00,meteohub,2013-08-11 23:28:00,
2013-08-11 19:34:00,88.3,73.2,30.09,NE,45,0.0,4.0,61,0.00,,,0.00,meteohub,2013-08-11 23:34:00,
2013-08-11 19:39:00,88.2,73.4,30.09,East,90,0.0,4.0,62,0.00,,,0.00,meteohub,2013-08-11 23:39:00,
2013-08-11 19:44:00,88.0,73.4,30.09,SE,135,2.0,4.0,62,0.00,,,0.00,meteohub,2013-08-11 23:44:00,
2013-08-11 19:51:00,87.6,73.4,30.09,East,90,2.0,2.0,63,0.00,,,0.00,meteohub,2013-08-11 23:51:00,
2013-08-11 19:56:00,87.3,73.0,30.10,East,90,2.0,2.0,63,0.00,,,0.00,meteohub,2013-08-11 23:56:00,
2013-08-11 20:02:00,87.1,72.5,30.10,East,90,0.0,2.0,62,0.00,,,0.00,meteohub,2013-08-12 00:02:00,
2013-08-11 20:07:00,86.9,72.3,30.10,ENE,68,1.0,2.0,62,0.00,,,0.00,meteohub,2013-08-12 00:07:00,
2013-08-11 20:13:00,86.4,72.3,30.10,East,90,2.0,3.0,63,0.00,,,0.00,meteohub,2013-08-12 00:13:00,
2013-08-11 20:18:00,86.4,72.3,30.11,East,90,2.0,3.0,63,0.00,,,0.00,meteohub,2013-08-12 00:18:00,
2013-08-11 20:24:00,86.0,72.0,30.11,South,180,2.0,3.0,63,0.00,,,0.00,meteohub,2013-08-12 00:24:00,
2013-08-11 20:29:00,85.8,72.7,30.11,East,90,2.0,2.0,65,0.00,,,0.00,meteohub,2013-08-12 00:29:00,
2013-08-11 20:34:00,85.6,72.5,30.11,SE,135,2.0,2.0,65,0.00,,,0.00,meteohub,2013-08-12 00:34:00,
2013-08-11 20:40:00,85.5,72.9,30.11,East,90,1.0,3.0,66,0.00,,,0.00,meteohub,2013-08-12 00:40:00,
2013-08-11 20:45:00,85.3,72.7,30.11,SE,135,3.0,3.0,66,0.00,,,0.00,meteohub,2013-08-12 00:45:00,
2013-08-11 20:50:00,85.1,72.5,30.11,East,90,2.0,3.0,66,0.00,,,0.00,meteohub,2013-08-12 00:50:00,
2013-08-11 20:55:00,84.9,72.3,30.11,SE,135,0.0,3.0,66,0.00,,,0.00,meteohub,2013-08-12 00:55:00,
2013-08-11 21:01:00,84.7,72.5,30.11,East,90,2.0,3.0,67,0.00,,,0.00,meteohub,2013-08-12 01:01:00,
2013-08-11 21:07:00,84.7,72.5,30.11,SE,135,0.0,2.0,67,0.00,,,0.00,meteohub,2013-08-12 01:07:00,
2013-08-11 21:12:00,84.6,72.3,30.11,South,180,2.0,4.0,67,0.00,,,0.00,meteohub,2013-08-12 01:12:00,
2013-08-11 21:18:00,84.4,72.7,30.11,SE,135,2.0,4.0,68,0.00,,,0.00,meteohub,2013-08-12 01:18:00,
2013-08-11 21:23:00,84.2,72.9,30.11,East,90,3.0,8.0,69,0.00,,,0.00,meteohub,2013-08-12 01:23:00,
2013-08-11 21:28:00,84.0,73.2,30.11,East,90,3.0,8.0,70,0.00,,,0.00,meteohub,2013-08-12 01:28:00,
2013-08-11 21:34:00,84.0,73.6,30.11,West,270,2.0,8.0,71,0.00,,,0.00,meteohub,2013-08-12 01:34:00,
2013-08-11 21:39:00,83.8,73.4,30.12,East,90,1.0,6.0,71,0.00,,,0.00,meteohub,2013-08-12 01:39:00,
2013-08-11 21:44:00,83.7,73.6,30.12,East,90,0.0,6.0,72,0.00,,,0.00,meteohub,2013-08-12 01:44:00,
2013-08-11 21:50:00,83.5,73.6,30.12,SE,135,2.0,6.0,72,0.00,,,0.00,meteohub,2013-08-12 01:50:00,
2013-08-11 21:55:00,83.5,73.9,30.12,SW,225,6.0,6.0,73,0.00,,,0.00,meteohub,2013-08-12 01:55:00,
2013-08-11 22:02:00,83.3,73.8,30.12,South,180,2.0,6.0,73,0.00,,,0.00,meteohub,2013-08-12 02:02:00,
2013-08-11 22:07:00,83.1,73.6,30.13,SE,135,2.0,6.0,73,0.00,,,0.00,meteohub,2013-08-12 02:07:00,
2013-08-11 22:12:00,82.9,73.4,30.13,SW,225,2.0,6.0,73,0.00,,,0.00,meteohub,2013-08-12 02:12:00,
2013-08-11 22:17:00,82.9,73.8,30.13,South,180,2.0,4.0,74,0.00,,,0.00,meteohub,2013-08-12 02:17:00,
2013-08-11 22:23:00,82.8,73.6,30.14,South,180,2.0,4.0,74,0.00,,,0.00,meteohub,2013-08-12 02:23:00,
2013-08-11 22:28:00,82.8,73.6,30.14,SW,225,2.0,4.0,74,0.00,,,0.00,meteohub,2013-08-12 02:28:00,
2013-08-11 22:33:00,82.6,73.4,30.14,SE,135,2.0,4.0,74,0.00,,,0.00,meteohub,2013-08-12 02:33:00,
2013-08-11 22:39:00,82.4,73.8,30.14,South,180,2.0,2.0,75,0.00,,,0.00,meteohub,2013-08-12 02:39:00,
2013-08-11 22:45:00,82.2,73.6,30.13,SE,135,0.0,3.0,75,0.00,,,0.00,meteohub,2013-08-12 02:45:00,
2013-08-11 22:51:00,82.0,73.8,30.14,East,90,1.0,3.0,76,0.00,,,0.00,meteohub,2013-08-12 02:51:00,
2013-08-11 22:56:00,81.9,73.9,30.14,SW,225,2.0,2.0,77,0.00,,,0.00,meteohub,2013-08-12 02:56:00,
2013-08-11 23:02:00,81.9,73.9,30.14,South,180,0.0,3.0,77,0.00,,,0.00,meteohub,2013-08-12 03:02:00,
2013-08-11 23:07:00,81.7,74.1,30.14,SE,135,2.0,3.0,78,0.00,,,0.00,meteohub,2013-08-12 03:07:00,
2013-08-11 23:12:00,81.7,74.1,30.14,South,180,2.0,4.0,78,0.00,,,0.00,meteohub,2013-08-12 03:12:00,
2013-08-11 23:17:00,81.5,73.9,30.14,SW,225,2.0,4.0,78,0.00,,,0.00,meteohub,2013-08-12 03:17:00,
2013-08-11 23:23:00,81.5,74.3,30.14,SE,135,0.0,4.0,79,0.00,,,0.00,meteohub,2013-08-12 03:23:00,
2013-08-11 23:28:00,81.3,74.5,30.14,SW,225,1.0,3.0,80,0.00,,,0.00,meteohub,2013-08-12 03:28:00,
2013-08-11 23:33:00,81.1,74.3,30.14,South,180,2.0,3.0,80,0.00,,,0.00,meteohub,2013-08-12 03:33:00,
2013-08-11 23:38:00,81.1,74.3,30.14,SE,135,1.0,3.0,80,0.00,,,0.00,meteohub,2013-08-12 03:38:00,
2013-08-11 23:44:00,81.0,74.1,30.14,South,180,3.0,3.0,80,0.00,,,0.00,meteohub,2013-08-12 03:44:00,
2013-08-11 23:50:00,81.0,74.1,30.14,South,180,2.0,2.0,80,0.00,,,0.00,meteohub,2013-08-12 03:50:00,
2013-08-11 23:55:00,81.0,74.7,30.14,East,90,2.0,3.0,81,0.00,,,0.00,meteohub,2013-08-12 03:55:00,